#timestamp,LO_Frequency,Hit,StdDev 
1524636015.1,286047000.7,N
1524636035.9,286046998.2,N
1524636055.7,286046998.1,N
1524636075.5,286046998.7,N
1524636095.4,286046998.7,N
1524636115.2,286046998.6,N
1524636135.1,286046999.1,N
1524636136.0,286046999.1,N
1524636155.8,286046999.4,N
1524636175.6,286047000.8,N
1524636195.5,286046999.0,N
1524636215.3,286046999.2,N
1524636235.2,286046998.9,N
1524636255.9,286046996.7,N
1524636275.7,286046997.2,N
1524636295.6,286046997.4,N
1524636315.4,286046999.1,N
1524636335.3,286046999.0,N
1524636355.1,286046998.7,N
1524636356.0,286046998.7,N
1524636375.8,286047001.0,N
1524636395.7,286047000.9,N
1524636415.5,286047000.7,N
1524636435.3,286046998.7,N
1524636455.2,286046999.5,N
1524636475.0,286046998.1,N
1524636475.9,286046998.1,N
1524636495.8,286046998.7,N
1524636515.6,286046999.2,N
1524636535.4,286046998.7,N
1524636555.3,286047000.8,N
1524636575.1,286047001.0,N
1524636595.9,286047000.1,N
1524636615.7,286047001.2,N
1524636635.5,286046999.4,N
1524636655.4,286047000.8,N
1524636675.2,286046998.2,N
1524636695.0,286047000.9,N
1524636695.9,286047000.9,N
1524636715.8,286047000.5,N
1524636735.6,286046998.7,N
1524636755.5,286046998.4,N
1524636775.3,286046998.8,N
1524636795.1,286046996.7,N
1524636815.9,286046996.9,N
1524636835.7,286046999.6,N
1524636855.5,286046998.7,N
1524636875.4,286046996.9,N
1524636895.2,286046996.5,N
1524636945.1,286046998.2,E
1524636955.0,286046998.3,N
1524636955.9,286046998.3,P
1524636975.8,286047000.1,P
1524636995.6,286047002.8,Y
1524637015.4,286047002.0,P
1524637035.3,286047001.7,N
1524637055.1,286047002.2,N
1524637075.8,286047001.5,N
1524637095.7,286047001.9,N
1524637115.5,286047002.6,N
1524637135.4,286047002.2,N
1524637155.2,286047000.2,N
1524637175.0,286047000.1,N
1524637175.9,286047000.1,N
1524637195.8,286047002.6,N
1524637215.6,286046999.7,N
1524637235.4,286047000.3,N
1524637255.3,286046999.9,N
1524637275.1,286047001.3,N
1524637295.9,286047001.8,N
1524637315.7,286047001.4,N
1524637335.5,286047001.9,N
1524637355.4,286047004.4,Y
1524637375.2,286047000.4,P
1524637395.0,286047001.1,N
1524637396.0,286047001.1,P
1524637415.8,286047000.8,N
1524637435.6,286047000.7,N
1524637455.5,286047000.5,N
1524637475.3,286046999.8,N
1524637495.1,286047000.5,N
1524637515.9,286047000.0,N
1524637535.7,286046999.9,N
1524637555.6,286047000.4,N
1524637575.4,286047000.0,N
1524637595.2,286047000.4,N
1524637615.1,286046999.7,N
1524637616.0,286046999.7,N
1524637635.8,286047002.5,Y
1524637655.7,286047001.9,P
1524637675.5,286047001.3,N
1524637695.3,286047000.4,N
1524637715.2,286047002.0,Y
1524637735.0,286047001.0,P
1524637735.9,286047001.0,P
1524637755.8,286046998.5,P
1524637775.6,286046999.0,N
1524637795.4,286046998.3,N
1524637815.3,286046998.6,N
1524637835.1,286046998.5,N
1524637855.8,286046998.7,N
1524637875.7,286046998.7,N
1524637895.5,286047001.2,N
1524637915.4,286046998.8,N
1524637935.2,286047000.3,N
1524637955.0,286046998.3,N
1524637955.9,286046998.3,N
1524637975.8,286046998.1,N
1524637995.6,286046998.4,N
1524638015.5,286046998.6,N
1524638035.3,286046997.0,N
1524638055.1,286046999.6,N
1524638075.9,286046999.4,N
1524638095.7,286046998.1,N
1524638115.5,286046999.9,N
1524638135.4,286046998.1,N
1524638155.2,286046999.4,N
1524638175.1,286046999.1,N
1524638176.0,286046999.1,N
1524638195.8,286046998.6,N
1524638215.6,286047000.6,N
1524638235.5,286047000.3,N
1524638255.3,286047000.6,N
1524638275.1,286046998.2,N
1524638295.9,286047000.4,N
1524638315.7,286047000.3,N
1524638335.6,286047002.8,N
1524638355.4,286047001.7,N
1524638375.2,286047001.7,N
1524638395.1,286047004.0,Y
1524638396.0,286047004.0,P
1524638415.8,286047003.9,N
1524638435.7,286047001.3,N
1524638455.5,286047001.4,N
1524638475.3,286047002.4,N
1524638495.2,286047003.9,N
1524638515.9,286047002.6,N
1524638535.7,286046999.9,N
1524638555.6,286047001.9,N
1524638575.4,286047003.7,N
1524638595.3,286047003.0,N
1524638615.1,286047001.3,N
1524638616.0,286047001.3,N
1524638635.8,286047002.2,N
1524638655.7,286047004.2,Y
1524638675.5,286047000.7,P
1524638695.4,286047000.3,N
1524638715.2,286047002.6,P
1524638735.0,286046999.9,N
1524638735.9,286046999.9,N
1524638755.8,286046998.5,N
1524638775.6,286047000.7,N
1524638795.4,286046999.9,N
1524638815.3,286046998.8,N
1524638865.2,286046998.6,E
1524638875.1,286047000.9,N
1524638876.0,286047000.9,P
1524638895.8,286047002.7,P
1524638915.7,286047000.3,N
1524638935.5,286047000.5,N
1524638955.3,286046999.7,N
1524638975.2,286047002.7,N
1524638995.0,286047002.4,N
1524638995.9,286047002.4,N
1524639015.7,286047000.7,N
1524639035.6,286047000.4,N
1524639055.4,286047000.5,N
1524639075.3,286047000.8,N
1524639095.1,286046998.7,N
1524639096.0,286046998.7,N
1524639115.8,286046998.1,N
1524639135.7,286046998.6,N
1524639155.5,286046998.8,N
1524639175.3,286046999.4,N
1524639195.2,286046998.8,N
1524639215.0,286046999.1,N
1524639215.9,286046999.1,N
1524639235.8,286046998.6,N
1524639255.6,286046998.4,N
1524639275.4,286046998.3,N
1524639295.3,286047000.8,N
1524639315.1,286046998.8,N
1524639335.9,286046999.3,N
1524639355.7,286046999.0,N
1524639375.5,286046999.0,N
1524639395.4,286046996.9,N
1524639415.2,286046997.2,N
1524639435.0,286046997.6,N
1524639435.9,286046997.6,N
1524639455.8,286046995.4,Y
1524639475.6,286046997.7,P
1524639495.5,286046997.8,N
1524639515.3,286046997.6,P
1524639535.1,286046997.8,Y
1524639555.9,286046998.7,P
1524639575.7,286046998.7,P
1524639595.5,286046998.6,P
